When you browse on this site, cookies collect data to enhance your experience and personalize the content and advertising you see.
Visit our Privacy Policy to learn more. By continuing to use the site, you agree to this use of cookies and data.
  • en France
  • Liste des pays
  • À 7 jours
  • Température de l'eau
  • Carte météo
  • Widgets météo
  • user-avatar
    Se connecter

    Météo par heure à Salvador

    Ce jour, 23 Août, Vendredi

    Heure Température Précipitation Vent Pression Humidité
    00:00 +23°C° 0 mm 4 m/s 761 mmHg 81%
    01:00 +23°C° 0.2 mm 4 m/s 761 mmHg 83%
    02:00 +24°C° 0.2 mm 3 m/s 760 mmHg 84%
    03:00 +22°C° 0.2 mm 3 m/s 760 mmHg 86%
    04:00 +22°C° 0.9 mm 3 m/s 760 mmHg 87%
    05:00 +22°C° 0.9 mm 3 m/s 760 mmHg 89%
    06:00 +22°C° 0.9 mm 3 m/s 760 mmHg 90%
    07:00 +22°C° 1.3 mm 4 m/s 761 mmHg 89%
    08:00 +23°C° 1.3 mm 4 m/s 761 mmHg 88%
    09:00 +23°C° 1.3 mm 4 m/s 761 mmHg 87%
    10:00 +25°C° 0.7 mm 5 m/s 761 mmHg 85%
    11:00 +24°C° 0.7 mm 6 m/s 761 mmHg 83%
    12:00 +26°C° 0.7 mm 7 m/s 761 mmHg 82%
    13:00 +26°C° 0.2 mm 7 m/s 760 mmHg 80%
    14:00 +26°C° 0.2 mm 7 m/s 760 mmHg 79%
    15:00 +26°C° 0.2 mm 6 m/s 759 mmHg 78%
    16:00 +24°C° 0 mm 6 m/s 760 mmHg 79%
    17:00 +24°C° 0 mm 6 m/s 760 mmHg 80%
    18:00 +25°C° 0 mm 5 m/s 761 mmHg 81%
    19:00 +25°C° 0 mm 5 m/s 761 mmHg 81%
    20:00 +23°C° 0 mm 5 m/s 761 mmHg 81%
    21:00 +23°C° 0 mm 5 m/s 761 mmHg 82%
    22:00 +23°C° 0 mm 5 m/s 761 mmHg 82%
    23:00 +23°C° 0 mm 4 m/s 761 mmHg 83%

    Demain, 24 Août, Samedi

    Heure Température Précipitation Vent Pression Humidité
    00:00 +23°C° 0 mm 4 m/s 761 mmHg 83%
    01:00 +23°C° 0 mm 4 m/s 761 mmHg 83%
    02:00 +23°C° 0 mm 4 m/s 760 mmHg 83%
    03:00 +23°C° 0 mm 4 m/s 760 mmHg 83%
    04:00 +23°C° 0 mm 4 m/s 760 mmHg 83%
    05:00 +23°C° 0 mm 4 m/s 760 mmHg 82%
    06:00 +24°C° 0 mm 3 m/s 760 mmHg 82%
    07:00 +25°C° 0 mm 3 m/s 761 mmHg 76%
    08:00 +26°C° 0 mm 3 m/s 761 mmHg 71%
    09:00 +27°C° 0 mm 3 m/s 761 mmHg 65%
    10:00 +27°C° 0 mm 4 m/s 761 mmHg 65%
    11:00 +27°C° 0 mm 4 m/s 761 mmHg 65%
    12:00 +27°C° 0 mm 4 m/s 761 mmHg 64%
    13:00 +27°C° 0 mm 4 m/s 760 mmHg 65%
    14:00 +27°C° 0 mm 5 m/s 760 mmHg 65%
    15:00 +27°C° 0 mm 5 m/s 759 mmHg 66%
    16:00 +26°C° 0 mm 5 m/s 760 mmHg 69%
    17:00 +26°C° 0 mm 5 m/s 760 mmHg 72%
    18:00 +25°C° 0 mm 5 m/s 760 mmHg 75%
    19:00 +25°C° 0 mm 5 m/s 761 mmHg 76%
    20:00 +25°C° 0 mm 5 m/s 761 mmHg 77%
    21:00 +24°C° 0 mm 6 m/s 762 mmHg 78%
    22:00 +23°C° 0 mm 5 m/s 762 mmHg 79%
    23:00 +23°C° 0 mm 5 m/s 762 mmHg 80%

    Après-demain, 25 Août, Dimanche

    Heure Température Précipitation Vent Pression Humidité
    00:00 +23°C° 0 mm 5 m/s 762 mmHg 81%
    01:00 +23°C° 0 mm 5 m/s 761 mmHg 82%
    02:00 +23°C° 0 mm 5 m/s 761 mmHg 82%
    03:00 +23°C° 0 mm 5 m/s 760 mmHg 83%
    04:00 +23°C° 0 mm 5 m/s 761 mmHg 84%
    05:00 +23°C° 0 mm 5 m/s 761 mmHg 84%
    06:00 +22°C° 0 mm 5 m/s 761 mmHg 84%
    07:00 +23°C° 0 mm 5 m/s 762 mmHg 80%
    08:00 +26°C° 0 mm 6 m/s 762 mmHg 75%
    09:00 +27°C° 0 mm 6 m/s 763 mmHg 70%
    10:00 +27°C° 0 mm 6 m/s 762 mmHg 69%
    11:00 +27°C° 0 mm 6 m/s 762 mmHg 67%
    12:00 +27°C° 0 mm 5 m/s 761 mmHg 65%
    13:00 +27°C° 0 mm 5 m/s 761 mmHg 66%
    14:00 +27°C° 0 mm 5 m/s 761 mmHg 67%
    15:00 +27°C° 0 mm 5 m/s 760 mmHg 68%
    16:00 +26°C° 0.1 mm 5 m/s 760 mmHg 73%
    17:00 +25°C° 0.1 mm 5 m/s 761 mmHg 77%
    18:00 +25°C° 0.1 mm 5 m/s 761 mmHg 81%
    19:00 +24°C° 0.1 mm 6 m/s 761 mmHg 82%
    20:00 +23°C° 0.1 mm 6 m/s 762 mmHg 83%
    21:00 +23°C° 0.1 mm 6 m/s 762 mmHg 84%
    22:00 +23°C° 0.1 mm 6 m/s 762 mmHg 84%
    23:00 +23°C° 0.1 mm 6 m/s 762 mmHg 84%

    26 Août, Lundi

    Heure Température Précipitation Vent Pression Humidité
    00:00 +23°C° 0.1 mm 6 m/s 762 mmHg 83%
    01:00 +23°C° 0 mm 6 m/s 761 mmHg 83%
    02:00 +23°C° 0 mm 6 m/s 761 mmHg 83%
    03:00 +23°C° 0 mm 6 m/s 761 mmHg 82%
    04:00 +23°C° 0 mm 6 m/s 761 mmHg 82%
    05:00 +23°C° 0 mm 6 m/s 761 mmHg 82%
    06:00 +23°C° 0 mm 6 m/s 761 mmHg 82%
    07:00 +24°C° 0 mm 6 m/s 762 mmHg 78%
    08:00 +26°C° 0 mm 6 m/s 762 mmHg 74%
    09:00 +27°C° 0 mm 6 m/s 762 mmHg 70%
    10:00 +27°C° 0.2 mm 6 m/s 762 mmHg 70%
    11:00 +27°C° 0.2 mm 6 m/s 762 mmHg 70%
    12:00 +27°C° 0.2 mm 6 m/s 761 mmHg 70%
    13:00 +27°C° 0.2 mm 6 m/s 761 mmHg 71%
    14:00 +27°C° 0.2 mm 6 m/s 761 mmHg 73%
    15:00 +26°C° 0.2 mm 6 m/s 760 mmHg 75%
    16:00 +26°C° 0 mm 6 m/s 760 mmHg 75%
    17:00 +26°C° 0 mm 6 m/s 761 mmHg 76%
    18:00 +24°C° 0 mm 6 m/s 761 mmHg 76%
    19:00 +24°C° 0.1 mm 6 m/s 761 mmHg 78%
    20:00 +24°C° 0.1 mm 6 m/s 761 mmHg 79%
    21:00 +24°C° 0.1 mm 6 m/s 762 mmHg 81%
    22:00 +24°C° 0.3 mm 7 m/s 761 mmHg 82%
    23:00 +24°C° 0.3 mm 7 m/s 761 mmHg 83%

    27 Août, Mardi

    Heure Température Précipitation Vent Pression Humidité
    00:00 +23°C° 0.3 mm 7 m/s 761 mmHg 85%
    01:00 +23°C° 0.9 mm 8 m/s 761 mmHg 85%
    02:00 +23°C° 0.9 mm 8 m/s 761 mmHg 86%
    03:00 +23°C° 0.9 mm 8 m/s 760 mmHg 87%
    04:00 +23°C° 1.1 mm 8 m/s 761 mmHg 86%
    05:00 +23°C° 1.1 mm 9 m/s 761 mmHg 84%
    06:00 +23°C° 1.1 mm 9 m/s 761 mmHg 83%
    07:00 +24°C° 0.3 mm 8 m/s 761 mmHg 81%
    08:00 +24°C° 0.3 mm 8 m/s 762 mmHg 79%
    09:00 +26°C° 0.3 mm 7 m/s 762 mmHg 76%
    10:00 +26°C° 0.2 mm 7 m/s 762 mmHg 76%
    11:00 +26°C° 0.2 mm 7 m/s 762 mmHg 75%
    12:00 +26°C° 0.2 mm 7 m/s 761 mmHg 75%
    13:00 +26°C° 0.1 mm 7 m/s 761 mmHg 75%
    14:00 +26°C° 0.1 mm 7 m/s 760 mmHg 74%
    15:00 +26°C° 0.1 mm 7 m/s 760 mmHg 74%
    16:00 +26°C° 0.3 mm 7 m/s 760 mmHg 77%
    17:00 +24°C° 0.3 mm 8 m/s 761 mmHg 81%
    18:00 +23°C° 0.3 mm 8 m/s 761 mmHg 84%
    19:00 +23°C° 0.7 mm 8 m/s 761 mmHg 84%
    20:00 +23°C° 0.7 mm 9 m/s 762 mmHg 85%
    21:00 +23°C° 0.7 mm 9 m/s 762 mmHg 85%
    22:00 +23°C° 0.3 mm 9 m/s 762 mmHg 84%
    23:00 +23°C° 0.3 mm 8 m/s 761 mmHg 83%

    28 Août, Mercredi

    Heure Température Précipitation Vent Pression Humidité
    00:00 +23°C° 0.3 mm 8 m/s 761 mmHg 82%
    01:00 +23°C° 0.2 mm 8 m/s 761 mmHg 82%
    02:00 +23°C° 0.2 mm 8 m/s 761 mmHg 82%
    03:00 +22°C° 0.2 mm 8 m/s 760 mmHg 82%
    04:00 +22°C° 0.1 mm 8 m/s 761 mmHg 82%
    05:00 +22°C° 0.1 mm 7 m/s 761 mmHg 81%
    06:00 +22°C° 0.1 mm 7 m/s 761 mmHg 80%
    07:00 +23°C° 0.2 mm 7 m/s 761 mmHg 78%
    08:00 +24°C° 0.2 mm 7 m/s 762 mmHg 76%
    09:00 +24°C° 0.2 mm 7 m/s 762 mmHg 73%
    10:00 +26°C° 0.1 mm 7 m/s 762 mmHg 72%
    11:00 +26°C° 0.1 mm 7 m/s 761 mmHg 71%
    12:00 +26°C° 0.1 mm 6 m/s 761 mmHg 70%
    13:00 +26°C° 0.2 mm 6 m/s 760 mmHg 72%
    14:00 +26°C° 0.2 mm 7 m/s 760 mmHg 74%
    15:00 +26°C° 0.2 mm 7 m/s 760 mmHg 76%
    16:00 +24°C° 0.1 mm 7 m/s 760 mmHg 77%
    17:00 +24°C° 0.1 mm 6 m/s 760 mmHg 79%
    18:00 +23°C° 0.1 mm 6 m/s 760 mmHg 81%
    19:00 +23°C° 0.2 mm 6 m/s 761 mmHg 82%
    20:00 +23°C° 0.2 mm 6 m/s 761 mmHg 84%
    21:00 +23°C° 0.2 mm 6 m/s 761 mmHg 86%
    22:00 +23°C° 0.1 mm 6 m/s 761 mmHg 86%
    23:00 +23°C° 0.1 mm 6 m/s 761 mmHg 86%
    Voir plus